Weather History for Hanford, CA

Change the Weather History Date:

Thursday, September 13, 2012

  Actual Average Record
Temperature  
Mean Temperature 79 °F 74 °F  
Max Temperature 99 °F 91 °F 99 °F (2012)
Min Temperature 58 °F 57 °F 48 °F (2005)
Degree Days  
Heating Degree Days 0    
Month to date heating degree days 0  
Since 1 July heating degree days 0  
Cooling Degree Days 14    
Month to date cooling degree days 167  
Year to date cooling degree days 1724  
Growing Degree Days 29 (Base 50)    
Moisture  
Dew Point 54 °F    
Average Humidity 50    
Maximum Humidity 80    
Minimum Humidity 20    
Precipitation  
Precipitation 0.00 in 0.01 in 0.00 in (2014)
Month to date precipitation 0.00 0.05  
Year to date precipitation 4.58 6.85  
Since 1 July precipitation T 0.09  
Snow  
Snow 0.00 in - - ()
Month to date snowfall 0.0  
Since 1 July snowfall 0.0  
Since 1 September snowfall 0.0  
Snow Depth 0.00 in    
Sea Level Pressure  
Sea Level Pressure 30.00 in    
Wind  
Wind Speed 4 mph (NW)    
Max Wind Speed 10 mph    
Max Gust Speed 14 mph    
Visibility 9 miles    
Events      
T = Trace of Precipitation, MM = Missing Value Source: NWS Daily Summary

Daily Weather History Graph

Daily Weather History Graph

Search for Another Location

Airport:

Trip Planner

Search our weather history database for the weather conditions in past years. The results will help you decide how hot, cold, wet, or windy it might be!

Date:

Astronomy

Sep. 13, 2012 Rise Set
Actual Time 6:39 AM PDT 7:07 PM PDT
Civil Twilight 6:13 AM PDT 7:33 PM PDT
Nautical Twilight 5:43 AM PDT 8:04 PM PDT
Astronomical Twilight 5:12 AM PDT 8:34 PM PDT
Moon 4:07 AM PDT (9/13) 5:31 PM PDT (9/13)
Length of Visible Light 13h 19m
Length of Day
12h 28m
Waning Crescent, 7% of the Moon is Illuminated
Sep 13
Waning Crescent
Sep 15
New
Sep 22
First Quarter
Sep 29
Full
Oct 8
Last Quarter

Hourly Weather History & Observations

Time (PDT) Temp. Heat Index Dew Point Humidity Pressure Visibility Wind Dir Wind Speed Gust Speed Precip Events Conditions
12:53 AM 73.9 °F - 53.1 °F 48% 29.99 in 10.0 mi NNW 6.9 mph - N/A   Clear
1:53 AM 71.1 °F - 53.1 °F 53% 30.00 in 10.0 mi NW 4.6 mph - N/A   Clear
2:53 AM 66.0 °F - 53.1 °F 63% 30.00 in 10.0 mi Calm Calm - N/A   Clear
3:53 AM 63.0 °F - 53.1 °F 70% 30.01 in 9.0 mi SSW 3.5 mph - N/A   Clear
4:53 AM 62.1 °F - 53.1 °F 72% 30.01 in 10.0 mi WSW 3.5 mph - N/A   Clear
5:53 AM 60.1 °F - 53.1 °F 78% 30.03 in 9.0 mi Calm Calm - N/A   Clear
6:53 AM 59.0 °F - 53.1 °F 81% 30.05 in 7.0 mi Calm Calm - N/A   Clear
7:53 AM 68.0 °F - 53.1 °F 59% 30.06 in 7.0 mi Calm Calm - N/A   Clear
8:53 AM 75.0 °F - 52.0 °F 44% 30.07 in 9.0 mi NW 3.5 mph - N/A   Clear
9:53 AM 79.0 °F - 54.0 °F 42% 30.07 in 9.0 mi ENE 3.5 mph - N/A   Clear
10:53 AM 84.9 °F - 51.1 °F 31% 30.07 in 10.0 mi West 6.9 mph - N/A   Clear
11:53 AM 88.0 °F - 51.1 °F 28% 30.05 in 9.0 mi West 4.6 mph - N/A   Clear
12:53 PM 93.0 °F - 51.1 °F 24% 30.03 in 10.0 mi Variable 3.5 mph - N/A   Clear
1:53 PM 95.0 °F - 48.0 °F 20% 30.00 in 10.0 mi Calm Calm - N/A   Clear
2:53 PM 97.0 °F - 51.1 °F 21% 29.97 in 10.0 mi North 4.6 mph - N/A   Clear
3:53 PM 99.0 °F - 50.0 °F 19% 29.95 in 10.0 mi NW 3.5 mph - N/A   Clear
5:53 PM 93.9 °F 91.7 °F 54.0 °F 26% 29.94 in 10.0 mi NNE 6.9 mph - N/A   Clear
6:53 PM 90.0 °F 88.6 °F 57.0 °F 33% 29.93 in 9.0 mi NNE 5.8 mph - N/A   Clear
7:53 PM 82.9 °F 82.8 °F 59.0 °F 44% 29.94 in 8.0 mi NNE 4.6 mph - N/A   Clear
8:53 PM 75.9 °F - 60.1 °F 58% 29.96 in 8.0 mi Calm Calm - N/A   Clear
9:53 PM 80.1 °F 80.6 °F 57.9 °F 47% 29.99 in 10.0 mi West 6.9 mph - N/A   Clear
10:53 PM 80.1 °F 80.4 °F 57.0 °F 45% 29.99 in 10.0 mi WNW 4.6 mph - N/A   Clear
11:53 PM 77.0 °F - 57.0 °F 50% 29.99 in 10.0 mi NNW 6.9 mph - N/A   Clear